User: anonymous   Login
Location: Arleux
(50.3632°N, 2.8721°E)
Time: 08:19:01
(UTC+00:00)
Language:

SJ-7 - Orbit

View from above orbital plane
View from above orbital plane
View from above satellite
View from above satellite

Ground track
Ground track

The orbit data is extracted from the following two-line orbital elements,

1 28737U 05024A   20055.60980838  .00000667  00000-0  64167-4 0  9999
2 28737  97.6812  56.6244 0032156 267.2219  92.5322 14.95964774801801
Epoch (UTC): 24 February 2020 14:38:07
Eccentricity: 0.0032156
inclination: 97.6812°
perigee height: 557 km
apogee height: 602 km
right ascension of ascending node: 56.6244°
argument of perigee: 267.2219°
revolutions per day: 14.95964774
mean anomaly at epoch: 92.5322°
orbit number at epoch: 80180

The dashed part of the orbit path shows where the satellite is in the earth's shadow,  

DLR